sat.trackr.live / text

‹ back to catalog

STARLINK-32469

NORAD 61721 · 2024-196Q

PAYLOAD ACTIVE UNKNOWN

§ Identity

Operator
Country
US
Launch date
2024-10-30
Launch site
AFETR
Launch vehicle
Mass (kg)
RCS (m²)

Purposes: comms

External: N2YO · Heavens-Above · Gunter

§ Orbital elements

Epoch: 2026-09-20T23:55:14.144736Z

Period
93.85 min
Inclination
53.1579°
Eccentricity
0.0001287
Mean motion
15.34391655 rev/d
Perigee alt
461.8 km
Apogee alt
463.6 km
Semi-major
6,840.9 km
B*
2.5335e-5
RAAN
271.6995°
Arg perigee
84.5622°
Mean anomaly
275.5527°
Rev number
10,709

§ Raw data

STARLINK-324691 61721U 24196Q   26263.99669149  .00000480  00000+0  25335-4 0  99942 61721  53.1579 271.6995 0001287  84.5622 275.5527 15.34391655107095

JSON: /api/v1/satellites/61721 · /tle

For live sub-satellite position, see the globe view (requires WebGL).

§ Visibility from observer

Set your observer location to see the next 7 days of passes ≥ 10°. The values pass through the URL so the page stays shareable.

No JS? Fill the form by hand. The geolocation button needs JavaScript.